DECAYED

DMSP 5D-2 F13 DEB, 40463 (Decayed)

Orbit data source: Space-Track

DMSP 5D-2 F13 DEB, 40463 was space debris in SSO originally from a launch on Fri, 24 Mar 1995 UTC launched from the Air Force Western Test Range (AFWTR). Debris objects in space refer to the collection of defunct objects orbiting the Earth. Examples of debris include non-operational satellites, rocket bodies, and fragments generated from explosions, collisions, or faulty payload assembly.

Not visible in the next 10 days
Identifier
40463, 1995-015BF
Orbit
Decayed
Country
Flag of USUS
Related business
Manufacturer
Unknown
Mission
Decayed spacecraft
Bus & Motor
Unknown
Mass
Unknown
Launch date (UTC)
1995-03-24 (31 years ago)
Launch vehicle
Unknown
Launch site
Air Force Western Test Range (AFWTR)
Object type
Payload
Rocket body
Debris
Shape & HBR
Unknown shape, 0.1 m
Radar Cross Section
Medium (>0.1 m² and <1 m²)

Expand to show TLE details & history
Last TLE update: 2 months ago

TLE from 2 months ago
0 DMSP 5D-2 F13 DEB
1 40463U 95015BF  26163.38922337  .00351394  00000-0  87483-2 0  9999
2 40463  98.6029 313.6243 0016827 283.6085  76.3282 15.38722224592494
Epoch: 2026-06-12T09:20Z
TLE epoch observation values (Epoch: 2026-06-12T09:20:28.899Z)
Latitude
-0.00004°
Longitude
-87.21548°
Altitude
450.267 km
Speed
7.644 km/s
True Right ascension
20h 54m 29s
True Declination
0° 00' 00"
Sunlit
Object was in full shadow at epoch
Visualization orbit readout
Latitude
Unknown
Longitude
Unknown
Altitude
Unknown
Speed
Unknown
Apparent Right ascension
Unknown
Apparent Declination
Unknown
Sunlit
N/A
Visualization observer readout
Local Sidereal Time
15:52:56
Azimuth
Unknown
Elevation
Unknown
Doppler factor
Unknown
Orbital elements
Apogee altitude
458.368 km
Perigee altitude
435.399 km
Semi-major axis
6,825.02 km
Eccentricity
0.00168
Inclination
98.6029°
RAAN
313.6243°
Arg. of periapsis
283.6085°
True anomaly
76.51565°
Mean anomaly
76.3282°
Eccentric anomaly
76.42192°
Mean motion
3.84935 °/min
Orbital period
93.52 mins
BSTAR
0.0087483

Documentation

Showing up to 5 results
|